[[{"header":{"parameterUnit":"m.s-1","parameterCategory":1,"la1":30.2991,"la2":30.254,"lo1":-89.0895,"lo2":-89.0444,"dy":0.0017,"dx":0.0017,"nx":28,"ny":28,"refTime":"2024-12-18T03:00:00:Z","depth":0,"parameterNumber":2,"parameterNumberName":"U-component_of_WINDS"},"data":[0,0,0,0,0,0,0,0,0,0,0,0,0,0,0,0,0,0,0,0,0,0,0,0,0,0,0,0,0,0,0,0,0,0,0,0,0,0,0,0,0,0,0,0,0,0,0,0,0,0,0,0,0,0,0,0,0,0,2.3481,2.3483,0,2.3684,2.3686,2.3689,2.3794,2.3794,2.3795,2.3795,2.4006,2.4012,2.4017,0,0,0,0,0,0,0,0,0,0,0,0,0,2.3187,2.3192,2.348,2.3483,2.3485,2.3684,2.3687,2.3689,2.3794,2.3794,2.3795,2.3795,2.4004,2.4011,2.4018,0,0,0,0,0,0,0,0,0,0,0,0,0,2.3345,2.3193,2.348,2.3562,2.3571,2.3683,2.3687,2.369,2.3794,2.3794,2.3795,2.3795,2.4002,2.401,2.4019,2.4066,0,0,2.4044,2.4047,0,0,0,0,0,0,0,0,2.3336,2.3355,2.3547,2.3556,2.3567,2.3714,2.3661,2.3816,2.3794,2.371,2.3795,2.3795,2.3909,2.3925,2.3963,2.4076,2.4085,2.4045,2.405,2.4053,2.4055,0,0,0,0,0,0,0,2.3325,2.3347,2.3561,2.355,2.3562,2.359,2.3612,2.3691,2.3806,2.3717,2.3725,2.3748,2.3915,2.3955,2.3969,2.4088,2.4044,2.4052,2.4057,2.406,2.4253,2.4253,0,0,0,0,0,0,2.33,2.3337,2.3555,2.3567,2.3449,2.3595,2.362,2.3667,2.3805,2.3827,2.3747,2.3752,2.394,2.3959,2.3976,2.4043,2.4053,2.4061,2.4066,2.4253,2.4253,2.4253,0,0,0,0,0,0,2.3293,2.3318,2.3546,2.3455,2.3486,2.36,2.3651,2.3671,2.3711,2.3828,2.385,2.3767,2.3941,2.3965,2.4043,2.4052,2.4065,2.4072,2.4253,2.4253,2.4253,2.4174,0,0,0,0,0,0,2.3284,2.3315,2.3333,2.3454,2.349,2.3608,2.3652,2.3674,2.3724,2.3732,2.3852,2.3872,2.3943,2.403,2.4051,2.4063,2.4079,2.4252,2.4253,2.4253,2.4177,2.4172,2.4168,0,0,0,0,0,2.3273,2.3303,2.3333,2.3359,2.3515,2.3608,2.3629,2.3709,2.3724,2.3745,2.382,2.3868,2.4047,2.4037,2.4062,2.4077,2.4252,2.4253,2.4253,2.4179,2.4173,2.4168,0,0,0,0,0,0,2.3181,2.332,2.3356,2.3425,2.3504,2.3626,2.3653,2.37,2.3777,2.3781,2.3879,2.3905,2.3975,2.4034,2.402,2.4131,2.4155,2.416,2.409,2.4085,2.4081,2.4066,2.4085,0,0,0,0,0,2.3168,2.3231,2.335,2.34,2.3438,2.3538,2.3582,2.3637,2.3723,2.3758,2.3839,2.3922,2.3997,2.4044,2.412,2.4186,2.4215,2.4208,2.4204,2.4199,2.4203,2.4245,2.4244,2.4254,2.4254,2.4254,0,0,2.3143,2.3228,2.3261,2.3384,2.3451,2.3516,2.3566,2.3632,2.3681,2.3768,2.3847,2.391,2.4009,2.4082,2.4118,2.4133,2.4207,2.42,2.4195,2.4202,2.4245,2.4244,2.4243,2.4255,2.4255,2.4254,0,0,2.3131,2.32,2.325,2.3317,2.3419,2.3486,2.3497,2.3613,2.3658,2.3739,2.3806,2.3867,2.3993,2.4062,2.4113,2.4128,2.4176,2.415,2.4127,2.4166,2.4166,2.4165,2.4172,2.4174,2.4153,2.4153,2.4153,0,2.3088,2.3187,2.327,2.3333,2.3386,2.3467,2.3519,2.358,2.3701,2.3737,2.3752,2.3914,2.3986,2.4077,2.4081,2.4119,2.4137,2.4137,2.4159,2.4159,2.416,2.4168,2.4171,2.415,2.415,2.415,2.4151,0,2.3129,2.3197,2.3225,2.334,2.3396,2.3452,2.3547,2.3594,2.3644,2.371,2.3792,2.3882,2.3978,2.4004,2.4054,2.4102,2.4109,2.414,2.4166,2.4154,2.4163,2.4167,2.4144,2.4146,2.4147,2.4148,0,0,2.3064,2.3225,2.3234,2.3288,2.3406,2.3461,2.3523,2.3616,2.3655,2.3736,2.3792,2.3898,2.3928,2.3986,2.4044,2.4079,2.4087,2.4106,2.411,2.4101,2.4149,2.4126,2.4128,2.412,2.4121,2.4121,2.4141,0,2.307,2.3183,2.3261,2.3344,2.3409,2.3487,2.3541,2.3621,2.3684,2.375,2.3821,2.3895,2.3928,2.3964,2.4001,2.4078,2.4099,2.4078,2.4174,2.4176,2.4147,2.4132,2.4108,2.4122,2.4145,2.4146,2.4146,0,2.3091,2.317,2.3259,2.3372,2.3402,2.3449,2.3542,2.3603,2.3695,2.374,2.3805,2.3865,2.3936,2.3955,2.4054,2.4038,2.4083,2.4127,2.4129,2.4142,2.4161,2.4146,2.4128,2.4131,2.4153,2.4152,2.4152,0,2.3037,2.3165,2.3235,2.3278,2.3412,2.3443,2.3501,2.3593,2.3645,2.3726,2.3761,2.385,2.3899,2.3967,2.405,2.4056,2.4142,2.4168,2.4182,2.418,2.4198,2.4195,2.4188,2.4224,2.4224,2.4224,2.4223,0,2.3035,2.3087,2.3212,2.3256,2.3317,2.3407,2.3466,2.353,2.3612,2.3671,2.3744,2.3798,2.3905,2.3972,2.4038,2.4112,2.4133,2.4172,2.4189,2.4166,2.4161,2.4197,2.4198,2.4224,2.4224,2.4224,2.4224,0,2.2985,2.307,2.3153,2.3272,2.3304,2.3343,2.3447,2.3493,2.3561,2.3634,2.3657,2.3764,2.3847,2.3937,2.4051,2.4095,2.4166,2.419,2.4134,2.4144,2.4155,2.4153,2.4171,2.4178,2.4207,2.4206,2.4206,0,2.2979,2.302,2.3144,2.3188,2.3244,2.3314,2.3367,2.3458,2.351,2.362,2.3653,2.3742,2.3818,2.3948,2.4037,2.4125,2.4152,2.4152,2.4166,2.4142,2.4154,2.4151,2.4156,2.4148,2.4147,2.4146,2.4146,0,2.2959,2.3,2.3073,2.3161,2.3222,2.3296,2.3373,2.3405,2.3512,2.3567,2.3653,2.3712,2.3828,2.3916,2.4015,2.4077,2.413,2.4141,2.4149,2.4127,2.4093,2.4113,2.4124,2.414,2.4141,2.4141,2.4141,2.4142,2.2932,2.2974,2.3068,2.3147,2.3214,2.3285,2.3334,2.3408,2.3481,2.3582,2.3632,2.3718,2.3812,2.3951,2.401,2.408,2.4097,2.4108,2.4111,2.4113,2.4108,2.4081,2.4099,2.4099,2.4099,2.41,2.41,0,2.2918,2.2982,2.3054,2.316,2.3222,2.3266,2.3354,2.3404,2.3478,2.3561,2.3634,2.3734,2.382,2.3915,2.4008,2.4046,2.4073,2.4067,2.4066,2.408,2.4087,2.4071,2.4044,2.4044,2.4044,2.4044,2.4044,2.4044,2.2918,2.2991,2.3043,2.3151,2.3216,2.3299,2.3346,2.3413,2.3479,2.3587,2.3658,2.372,2.3809,2.3908,2.399,2.4017,2.4048,2.4035,2.4069,2.4074,2.4079,2.4083,2.4069,2.4041,2.4041,2.4056,2.4056,2.4056]},{"header":{"parameterUnit":"m.s-1","parameterCategory":1,"la1":30.2991,"la2":30.254,"lo1":-89.0895,"lo2":-89.0444,"dy":0.0017,"dx":0.0017,"nx":28,"ny":28,"refTime":"2024-12-18T03:00:00:Z","depth":0,"parameterNumber":3,"parameterNumberName":"V-component_of_WINDS"},"data":[0,0,0,0,0,0,0,0,0,0,0,0,0,0,0,0,0,0,0,0,0,0,0,0,0,0,0,0,0,0,0,0,0,0,0,0,0,0,0,0,0,0,0,0,0,0,0,0,0,0,0,0,0,0,0,0,0,0,-1.0182,-1.0182,0,-1.0225,-1.0226,-1.0226,-1.0235,-1.0234,-1.0234,-1.0234,-1.0277,-1.0278,-1.028,0,0,0,0,0,0,0,0,0,0,0,0,0,-1.0107,-1.0109,-1.0182,-1.0182,-1.0183,-1.0225,-1.0226,-1.0226,-1.0235,-1.0234,-1.0234,-1.0234,-1.0276,-1.0278,-1.028,0,0,0,0,0,0,0,0,0,0,0,0,0,-1.0144,-1.0109,-1.0182,-1.0192,-1.0194,-1.0225,-1.0226,-1.0226,-1.0235,-1.0234,-1.0234,-1.0233,-1.0276,-1.0278,-1.028,-1.0303,0,0,-1.0287,-1.0288,0,0,0,0,0,0,0,0,-1.0142,-1.0147,-1.019,-1.0192,-1.0193,-1.0224,-1.0215,-1.0252,-1.0235,-1.0219,-1.0234,-1.0233,-1.026,-1.0263,-1.0272,-1.0305,-1.0307,-1.0287,-1.0288,-1.0289,-1.029,0,0,0,0,0,0,0,-1.0139,-1.0145,-1.0199,-1.0191,-1.0193,-1.0195,-1.02,-1.0222,-1.0242,-1.0221,-1.0221,-1.0226,-1.026,-1.027,-1.0273,-1.0308,-1.0287,-1.0289,-1.029,-1.0291,-1.0366,-1.0366,0,0,0,0,0,0,-1.0135,-1.0143,-1.0197,-1.02,-1.0166,-1.0197,-1.0202,-1.0215,-1.0241,-1.0245,-1.0227,-1.0227,-1.0267,-1.0271,-1.0275,-1.0306,-1.0289,-1.0291,-1.0292,-1.0365,-1.0366,-1.0366,0,0,0,0,0,0,-1.0133,-1.014,-1.0196,-1.0172,-1.0179,-1.0199,-1.0213,-1.0216,-1.0226,-1.0246,-1.025,-1.0233,-1.0266,-1.0272,-1.0297,-1.0308,-1.0292,-1.0294,-1.0364,-1.0365,-1.0366,-1.0367,0,0,0,0,0,0,-1.0131,-1.0139,-1.0148,-1.0172,-1.018,-1.0217,-1.0213,-1.0217,-1.0229,-1.023,-1.0253,-1.0256,-1.0266,-1.0294,-1.0299,-1.031,-1.0296,-1.0363,-1.0365,-1.0366,-1.0366,-1.0368,-1.037,0,0,0,0,0,-1.0128,-1.0145,-1.0148,-1.0155,-1.0192,-1.0217,-1.0222,-1.0234,-1.023,-1.024,-1.0253,-1.0256,-1.0305,-1.0296,-1.0302,-1.0314,-1.0363,-1.0364,-1.0366,-1.0366,-1.0368,-1.037,0,0,0,0,0,0,-1.0121,-1.0149,-1.0152,-1.0177,-1.0195,-1.0219,-1.0231,-1.0235,-1.0254,-1.0253,-1.0267,-1.0272,-1.0297,-1.0308,-1.0297,-1.034,-1.0334,-1.0337,-1.0332,-1.0334,-1.0336,-1.0333,-1.0298,0,0,0,0,0,-1.0122,-1.0141,-1.0164,-1.0184,-1.0193,-1.0211,-1.0222,-1.023,-1.0249,-1.0256,-1.0271,-1.0289,-1.031,-1.0322,-1.0341,-1.0368,-1.0374,-1.038,-1.0381,-1.0382,-1.0385,-1.0403,-1.0406,-1.0371,-1.0371,-1.0371,0,0,-1.0125,-1.0143,-1.0153,-1.0183,-1.0198,-1.0218,-1.0217,-1.0237,-1.0252,-1.0259,-1.0284,-1.0297,-1.0318,-1.0344,-1.0357,-1.0354,-1.0396,-1.0384,-1.0385,-1.0387,-1.0404,-1.0408,-1.0411,-1.0373,-1.0372,-1.0372,0,0,-1.014,-1.0155,-1.0175,-1.019,-1.0213,-1.0225,-1.023,-1.0253,-1.0262,-1.0288,-1.0295,-1.0313,-1.0346,-1.0362,-1.0374,-1.0399,-1.0403,-1.0405,-1.0414,-1.0431,-1.0434,-1.0436,-1.0447,-1.045,-1.0407,-1.0407,-1.0407,0,-1.0141,-1.0171,-1.0184,-1.0205,-1.0219,-1.0227,-1.0248,-1.0262,-1.029,-1.0299,-1.0296,-1.0341,-1.0355,-1.0387,-1.0394,-1.0403,-1.041,-1.0402,-1.0432,-1.0435,-1.0437,-1.0448,-1.0452,-1.0407,-1.0407,-1.0407,-1.0407,0,-1.0171,-1.0192,-1.0205,-1.0234,-1.0249,-1.0269,-1.0286,-1.03,-1.0307,-1.032,-1.0347,-1.0366,-1.039,-1.0398,-1.0404,-1.0432,-1.043,-1.0429,-1.0424,-1.0441,-1.0451,-1.0455,-1.0408,-1.0408,-1.0408,-1.0408,0,0,-1.0182,-1.0219,-1.0224,-1.0238,-1.0265,-1.0281,-1.0303,-1.0328,-1.0341,-1.036,-1.038,-1.041,-1.0411,-1.0425,-1.0433,-1.0448,-1.0469,-1.0446,-1.0446,-1.0451,-1.0503,-1.0505,-1.0509,-1.0472,-1.0473,-1.0473,-1.0502,0,-1.0201,-1.0241,-1.0255,-1.0288,-1.0308,-1.0318,-1.0338,-1.0357,-1.037,-1.039,-1.0404,-1.0426,-1.0424,-1.0433,-1.0448,-1.0463,-1.048,-1.0461,-1.0491,-1.0492,-1.0487,-1.0514,-1.0515,-1.0541,-1.0506,-1.0507,-1.0507,0,-1.0229,-1.0251,-1.0287,-1.0314,-1.0323,-1.034,-1.0366,-1.0384,-1.0407,-1.0416,-1.0433,-1.0441,-1.0466,-1.0459,-1.0494,-1.0481,-1.0494,-1.0504,-1.0506,-1.051,-1.0501,-1.052,-1.0549,-1.0554,-1.0513,-1.0513,-1.0512,0,-1.0235,-1.0273,-1.03,-1.0312,-1.0344,-1.0356,-1.037,-1.0393,-1.0408,-1.043,-1.0441,-1.0465,-1.0479,-1.0498,-1.0514,-1.0507,-1.0548,-1.0542,-1.0557,-1.0557,-1.0566,-1.0565,-1.0599,-1.0572,-1.0572,-1.0572,-1.0572,0,-1.0256,-1.0278,-1.0304,-1.032,-1.0346,-1.0362,-1.0387,-1.0401,-1.0422,-1.0443,-1.0452,-1.0471,-1.0489,-1.0511,-1.0523,-1.0552,-1.0558,-1.0566,-1.0569,-1.0566,-1.0565,-1.0576,-1.0575,-1.0573,-1.0573,-1.0573,-1.0572,0,-1.0267,-1.0285,-1.0316,-1.0345,-1.0352,-1.037,-1.0395,-1.0412,-1.0427,-1.0453,-1.046,-1.0482,-1.0509,-1.0526,-1.0559,-1.0568,-1.06,-1.0601,-1.0592,-1.0594,-1.0609,-1.0608,-1.0652,-1.0659,-1.0626,-1.0626,-1.0627,0,-1.028,-1.0297,-1.0329,-1.0344,-1.0358,-1.0382,-1.0398,-1.0415,-1.0432,-1.0461,-1.0475,-1.0503,-1.0526,-1.0568,-1.0588,-1.0614,-1.0618,-1.0631,-1.0622,-1.0619,-1.062,-1.062,-1.0623,-1.0633,-1.0633,-1.0633,-1.0634,0,-1.0301,-1.031,-1.0333,-1.036,-1.038,-1.0402,-1.0424,-1.0436,-1.0457,-1.0475,-1.0503,-1.0522,-1.0557,-1.0585,-1.0614,-1.0629,-1.0636,-1.0637,-1.0642,-1.0639,-1.0634,-1.0639,-1.0598,-1.0636,-1.0635,-1.0635,-1.0635,-1.0635,-1.0314,-1.0331,-1.0357,-1.0383,-1.0402,-1.0424,-1.0442,-1.046,-1.0484,-1.0515,-1.0524,-1.0553,-1.0579,-1.0619,-1.0635,-1.0659,-1.0657,-1.0664,-1.0666,-1.0668,-1.067,-1.063,-1.0664,-1.0664,-1.0664,-1.0664,-1.0664,0,-1.0337,-1.0355,-1.0379,-1.0411,-1.0433,-1.0438,-1.0463,-1.0481,-1.0507,-1.0531,-1.0554,-1.0588,-1.0616,-1.0639,-1.0668,-1.0684,-1.0688,-1.0691,-1.069,-1.0694,-1.0668,-1.0662,-1.0687,-1.0687,-1.0687,-1.0687,-1.0687,-1.0687,-1.0352,-1.0382,-1.0394,-1.0435,-1.0452,-1.0482,-1.0497,-1.0517,-1.0537,-1.0574,-1.0598,-1.0613,-1.0637,-1.0669,-1.0696,-1.0702,-1.0713,-1.0716,-1.0723,-1.0698,-1.0696,-1.0693,-1.0687,-1.0718,-1.0718,-1.0747,-1.0748,-1.0748]}]]